La Nava - Corral De Ayllón Airport

Jump to: basic info | weather | comments

Related pages: nearby airports | nearby navaids | notams | map

Basic information (top)

Codes: LECA
Location: lon 41.410801, lat -3.448330, elev 3,280 ft / 1,000 m msl
Status: small_airport

Weather (top)

Current conditions for Torrejón Airport 55nm (102km) S (rec'd 2014/11/28 10:00Z):

LETO 281000Z 14014G24KT 110V180 8000 RA FEW037 OVC050 10/08 Q0986 NOSIG

Airport forecast for Torrejón Airport 55nm (102km) S (rec'd 2014/11/28 06:27Z):

TAF LETO 280500Z 2806/2906 16012KT 9999 SCT035 TX11/2816Z TN06/2905Z 
      TEMPO 2806/2814 16015G25KT 
      TEMPO 2806/2816 RA BKN014 
      BECMG 2816/2818 02005KT

Latest comments (top)

No comments yet for La Nava - Corral De Ayllón Airport

More... (top)

See also NOTAMs and nearby airports and navaids, or visit the La Nava - Corral De Ayllón Airport page at the main OurAirports website..